Vertical_Velocity
-0 -5 -2 3 -5 3 -4 -6 -3 -2 0 3 -0 -0 0 0 1 -0 1 0 -0 -2 -1 -2 -1 -1 -1
3 -1 1 -4 4 0 3 -3 -8 -4 -2 -3 -0 -1 -1 -1 -1 -1 -2 -0 1 -2 -0 0 -3 -3 -3
-1 2 1 1 -1 6 -8 -1 1 -2 -1 -2 -1 1 0 0 -0 0 0 -0 -1 -1 -0 -0 -3 -1 -1
2 -1 1 -2 3 3 -13 2 -3 1 1 -2 -1 1 -0 1 -0 0 1 0 0 -0 -1 0 -3 -1 -1
1 0 -2 3 0 1 2 -0 6 -2 -3 -3 -3 -1 3 0 0 -0 2 1 -0 1 1 0 -2 -2 1
-3 -4 -4 1 0 2 5 4 -5 5 -1 -7 -1 -2 -1 -1 1 -1 -1 1 0 1 1 1 -2 -1 0
9 6 -1 -4 6 4 6 -1 -5 9 3 -3 2 -5 1 0 -1 1 1 1 0 0 1 1 -0 0 -1
2 -7 1 6 5 10 5 5 10 2 4 -1 1 -4 2 2 -0 -0 1 0 1 0 0 3 -1 -1 -2
2 -5 -1 1 8 29 0 5 4 -4 2 5 -1 -4 -0 -1 3 -2 1 1 -0 -1 1 0 -1 -1 -2
-2 -5 3 -3 -2 20 7 -1 5 7 -6 3 3 -2 -5 0 1 -2 2 1 0 -1 -0 -1 0 -1 -0
-1 -7 6 -6 -2 -1 7 -3 3 2 -6 5 2 -2 -2 1 -4 -2 0 1 0 -0 1 -0 1 -0 -0
-2 -2 -2 -4 -2 -2 10 1 8 7 1 3 -1 -2 -1 -1 -2 0 1 1 2 0 -1 0 1 1 1
-2 -2 -1 0 5 12 10 15 7 4 4 2 -1 -0 1 -1 -5 1 1 -0 -0 -1 -1 -0 1 0 -0
2 -2 -1 2 -1 1 6 6 5 4 0 1 5 1 -1 -4 -0 0 -0 -2 -0 0 -0 0 0 -0 0
1 0 -2 6 3 2 7 5 2 -3 -2 1 0 -0 -3 -1 -1 0 -1 -0 -1 -1 -0 -1 -1 -2 -3
-0 3 -2 2 1 1 2 -1 1 1 2 -1 -2 -0 -1 -2 1 1 2 -0 0 0 -1 -4 -1 3 0
1 0 5 4 4 1 1 2 4 3 -1 -2 -1 -1 0 -2 -0 0 1 0 1 -2 -2 -2 -2 -0 -2
Height
1439 1440 1440 1436 1433 1431 1429 1428 1427 1427 1425 1424 1423 1422 1421 1420 1419 1418 1417 1416 1415 1415 1414 1415 1416 1416 1415
1431 1431 1430 1430 1427 1424 1423 1421 1419 1419 1417 1416 1415 1414 1413 1412 1412 1411 1410 1410 1409 1409 1409 1409 1409 1409 1409
1419 1422 1420 1421 1419 1416 1413 1412 1410 1410 1409 1408 1407 1406 1406 1405 1405 1404 1403 1403 1403 1402 1402 1402 1402 1403 1403
1413 1412 1411 1411 1410 1408 1403 1402 1399 1400 1400 1399 1398 1398 1397 1398 1397 1397 1397 1396 1396 1396 1396 1396 1396 1396 1397
1407 1405 1402 1401 1400 1399 1395 1394 1392 1392 1390 1390 1390 1390 1390 1389 1389 1390 1390 1390 1390 1390 1390 1390 1391 1391 1391
1399 1396 1394 1393 1392 1391 1389 1387 1383 1384 1382 1381 1383 1382 1383 1383 1383 1383 1383 1384 1384 1384 1384 1385 1386 1386 1386
1390 1387 1383 1384 1383 1380 1379 1376 1375 1377 1375 1374 1375 1376 1377 1377 1377 1377 1377 1377 1377 1378 1378 1379 1380 1380 1381
1381 1376 1374 1372 1372 1370 1367 1367 1368 1368 1369 1367 1368 1370 1371 1371 1371 1371 1371 1371 1372 1372 1373 1375 1375 1375 1376
1370 1366 1363 1362 1362 1358 1356 1359 1360 1360 1362 1362 1362 1364 1365 1365 1366 1364 1365 1365 1366 1366 1368 1369 1370 1371 1371
1357 1354 1352 1350 1349 1348 1346 1349 1353 1353 1355 1357 1357 1359 1360 1359 1360 1359 1360 1361 1362 1362 1363 1364 1365 1366 1366
1347 1343 1340 1340 1338 1336 1336 1340 1344 1345 1348 1351 1351 1354 1356 1356 1357 1357 1357 1358 1358 1358 1359 1359 1360 1361 1361
1339 1335 1333 1330 1329 1328 1329 1333 1337 1340 1343 1345 1347 1349 1351 1352 1353 1354 1353 1353 1353 1353 1354 1354 1355 1356 1356
1331 1327 1325 1324 1324 1324 1325 1329 1333 1336 1339 1341 1342 1344 1346 1347 1349 1349 1350 1349 1348 1348 1348 1350 1351 1351 1352
1324 1321 1319 1319 1320 1322 1324 1327 1330 1333 1335 1337 1339 1340 1342 1343 1344 1343 1344 1344 1343 1344 1345 1346 1346 1347 1347
1317 1316 1315 1315 1316 1318 1320 1323 1326 1328 1331 1333 1335 1336 1337 1338 1338 1338 1338 1338 1339 1341 1341 1341 1342 1342 1342
1312 1311 1311 1312 1313 1315 1317 1320 1323 1325 1327 1329 1330 1332 1334 1334 1333 1332 1333 1334 1336 1337 1337 1337 1337 1338 1337
1308 1306 1307 1309 1310 1313 1315 1317 1320 1322 1323 1325 1327 1329 1330 1329 1330 1330 1330 1331 1333 1333 1333 1333 1332 1332 1333